STARLINK-32733

Last updated on Fri Jan 31 2025 00:02:04 GMT+0000 (Coordinated Universal Time)

1 62477U 24254R 25030.56342016 .00001831 00000+0 37037-4 0 9996 2 62477 43.0000 137.0265 0001765 265.4442 94.6217 15.50572303 5954
UTC large
Height (km)
Speed (km/s)
/
Latitude / Longitude
Inclination (degrees)
Orbital Period (minutes)
Azimuth
Elevation
Range (km)
Doppler Factor

Next 0 passes for location: London (51.5072 / 0.1276)

Sorry there are no passes over London.